GFSCGP_500_temp_144.txt.gz
Temp
-5 -5 -5 -5 -6 -7 -7 -8 -8 -7 -8 -8 -8 -8 -8 -9 -9 -9 -9 -8 -8 -8 -8 -7 -7 -7 -8 -8 -8 -8 -8 -9 -9 -9 -9 -9 -9 -9 -9 -9 -9 -9 -9 -9
-5 -5 -5 -5 -5 -6 -7 -8 -8 -8 -8 -8 -8 -8 -8 -8 -8 -8 -8 -8 -8 -8 -8 -8 -7 -7 -7 -7 -8 -8 -8 -8 -8 -9 -9 -9 -9 -8 -9 -9 -9 -9 -9 -9
-5 -5 -5 -5 -6 -6 -7 -8 -8 -8 -8 -7 -8 -8 -8 -8 -8 -8 -8 -8 -8 -8 -8 -8 -8 -8 -7 -7 -7 -8 -8 -8 -8 -8 -8 -8 -8 -8 -8 -8 -8 -9 -9 -9
-5 -5 -5 -5 -6 -6 -8 -6 -7 -7 -8 -8 -7 -7 -8 -8 -8 -8 -8 -8 -8 -7 -7 -7 -8 -8 -8 -7 -7 -8 -8 -7 -7 -8 -8 -8 -8 -8 -8 -8 -8 -8 -8 -9
-5 -5 -5 -5 -6 -6 -8 -6 -6 -6 -8 -7 -7 -8 -7 -7 -8 -8 -8 -8 -8 -9 -8 -7 -7 -8 -8 -7 -7 -7 -8 -8 -7 -7 -7 -8 -8 -8 -7 -7 -7 -7 -7 -8
-4 -5 -5 -5 -5 -5 -5 -6 -6 -6 -8 -8 -8 -7 -7 -8 -8 -9 -8 -8 -9 -9 -9 -8 -8 -8 -8 -8 -8 -7 -7 -7 -8 -7 -7 -7 -7 -8 -7 -8 -7 -7 -7 -8
-5 -5 -5 -5 -5 -5 -5 -6 -8 -8 -8 -7 -7 -6 -8 -7 -7 -7 -8 -8 -8 -8 -9 -9 -8 -8 -8 -8 -8 -8 -9 -9 -9 -9 -9 -9 -8 -8 -7 -7 -8 -8 -8 -8
-5 -5 -5 -5 -5 -5 -6 -8 -7 -8 -7 -7 -7 -6 -7 -7 -7 -7 -8 -8 -8 -8 -8 -9 -8 -8 -8 -8 -8 -7 -8 -8 -8 -8 -8 -8 -8 -9 -9 -8 -8 -8 -8 -8
-5 -6 -5 -5 -6 -6 -6 -6 -7 -7 -7 -7 -8 -6 -7 -6 -6 -7 -8 -8 -8 -9 -9 -9 -9 -9 -9 -9 -8 -8 -8 -8 -8 -8 -8 -8 -8 -8 -8 -8 -9 -9 -9 -9
-5 -7 -5 -5 -6 -6 -6 -7 -7 -8 -8 -8 -8 -7 -8 -7 -6 -7 -7 -8 -8 -8 -9 -9 -10 -9 -9 -9 -8 -8 -8 -8 -8 -8 -7 -7 -8 -8 -8 -8 -8 -8 -8 -8
-5 -5 -5 -6 -6 -7 -6 -6 -7 -8 -8 -8 -8 -8 -7 -7 -7 -7 -7 -8 -8 -9 -9 -9 -9 -9 -10 -10 -9 -8 -8 -8 -8 -8 -8 -8 -8 -8 -7 -7 -8 -8 -8 -8
-5 -6 -6 -6 -5 -6 -7 -9 -8 -9 -9 -8 -8 -8 -7 -7 -7 -7 -7 -7 -8 -8 -9 -9 -10 -10 -10 -9 -9 -9 -9 -9 -8 -8 -8 -8 -8 -8 -7 -8 -8 -8 -8 -8
-6 -5 -6 -6 -6 -6 -6 -7 -8 -9 -8 -9 -8 -8 -8 -7 -7 -7 -7 -7 -7 -8 -8 -9 -9 -9 -9 -9 -9 -9 -9 -9 -8 -8 -8 -8 -8 -8 -8 -8 -8 -9 -9 -9
-7 -6 -6 -7 -7 -8 -8 -8 -8 -8 -9 -9 -9 -9 -8 -7 -7 -7 -7 -7 -7 -8 -8 -9 -9 -10 -10 -9 -9 -9 -9 -9 -9 -9 -8 -9 -9 -9 -9 -9 -9 -10 -10 -10
-7 -6 -6 -8 -9 -9 -8 -8 -8 -9 -9 -10 -9 -9 -8 -8 -8 -7 -7 -7 -8 -8 -8 -8 -9 -9 -9 -9 -9 -10 -9 -9 -9 -9 -9 -9 -9 -9 -10 -10 -10 -11 -11 -11
-7 -7 -7 -8 -8 -8 -8 -8 -8 -9 -9 -9 -9 -9 -8 -8 -7 -7 -7 -8 -8 -8 -8 -8 -8 -9 -9 -9 -10 -10 -10 -10 -10 -10 -10 -10 -10 -10 -10 -11 -11 -11 -11 -11
-8 -8 -8 -8 -8 -9 -9 -8 -9 -9 -9 -9 -9 -9 -9 -9 -8 -8 -8 -8 -8 -8 -8 -8 -8 -8 -9 -9 -10 -10 -10 -10 -10 -10 -10 -10 -11 -11 -11 -11 -11 -11 -11 -11
-9 -9 -9 -9 -9 -9 -9 -9 -9 -9 -9 -9 -9 -9 -9 -9 -9 -8 -8 -8 -8 -8 -8 -9 -9 -9 -9 -9 -10 -10 -10 -10 -10 -10 -11 -11 -11 -11 -11 -11 -11 -12 -12 -13
-9 -10 -10 -10 -9 -10 -10 -9 -9 -10 -10 -10 -10 -9 -9 -9 -9 -8 -8 -8 -8 -8 -8 -8 -9 -9 -9 -9 -10 -10 -10 -11 -11 -11 -11 -11 -11 -11 -11 -12 -12 -12 -12 -12
-9 -10 -10 -9 -10 -10 -10 -10 -10 -10 -10 -10 -10 -10 -9 -9 -9 -8 -9 -9 -9 -9 -9 -9 -9 -9 -10 -10 -10 -11 -11 -11 -11 -11 -11 -11 -11 -12 -12 -12 -12 -12 -12 -13
-10 -10 -10 -10 -10 -10 -10 -10 -10 -10 -11 -10 -10 -9 -9 -9 -9 -9 -9 -9 -9 -10 -10 -10 -10 -10 -10 -11 -11 -11 -11 -11 -11 -11 -11 -12 -12 -12 -12 -12 -12 -13 -13 -13
-11 -11 -10 -11 -10 -11 -10 -10 -10 -10 -10 -10 -10 -9 -9 -9 -9 -10 -10 -10 -10 -10 -10 -10 -11 -11 -11 -11 -11 -11 -11 -11 -12 -12 -12 -13 -13 -12 -12 -12 -13 -13 -13 -13
-11 -10 -11 -10 -11 -10 -10 -10 -10 -10 -10 -10 -10 -10 -10 -10 -10 -10 -10 -10 -10 -10 -11 -11 -11 -11 -11 -11 -11 -11 -12 -12 -12 -13 -14 -13 -13 -13 -13 -13 -13 -13 -13 -13
-11 -10 -11 -11 -11 -10 -10 -10 -10 -10 -10 -10 -10 -10 -10 -10 -10 -10 -11 -11 -11 -11 -11 -11 -11 -11 -12 -12 -12 -12 -12 -12 -13 -14 -14 -13 -13 -13 -13 -13 -13 -13 -13 -13
-11 -11 -11 -11 -11 -11 -11 -10 -10 -10 -10 -10 -10 -11 -11 -11 -11 -11 -11 -11 -11 -11 -11 -12 -12 -12 -12 -12 -12 -12 -13 -13 -13 -13 -13 -13 -13 -13 -13 -13 -12 -13 -13 -13
-12 -11 -12 -11 -11 -11 -11 -11 -11 -11 -11 -11 -11 -11 -11 -11 -11 -11 -12 -12 -12 -12 -12 -12 -12 -12 -13 -13 -13 -13 -14 -14 -14 -14 -14 -14 -13 -13 -13 -13 -13 -13 -13 -13

GFSCGP_500_temp_147.txt.gz
Temp
-5 -5 -5 -7 -7 -7 -6 -6 -6 -7 -7 -7 -7 -8 -8 -7 -9 -7 -7 -7 -7 -6 -6 -6 -6 -6 -6 -7 -7 -8 -8 -8 -8 -8 -8 -8 -8 -8 -8 -8 -8 -8 -8 -8
-5 -5 -6 -7 -6 -6 -7 -7 -6 -7 -7 -7 -7 -7 -8 -8 -8 -8 -8 -7 -7 -7 -7 -7 -6 -6 -6 -6 -7 -7 -7 -7 -7 -8 -8 -8 -8 -8 -8 -8 -8 -8 -8 -8
-5 -6 -5 -5 -5 -6 -7 -6 -6 -7 -7 -7 -7 -7 -7 -6 -7 -9 -8 -8 -7 -7 -7 -7 -7 -7 -6 -6 -6 -6 -6 -7 -7 -7 -7 -7 -7 -7 -7 -7 -7 -8 -8 -8
-5 -5 -5 -5 -6 -7 -6 -7 -7 -7 -7 -7 -6 -6 -8 -8 -7 -7 -8 -8 -8 -7 -7 -7 -8 -8 -7 -7 -7 -7 -6 -6 -7 -7 -7 -7 -7 -7 -7 -5 -7 -7 -7 -7
-5 -5 -5 -5 -5 -6 -7 -6 -6 -7 -7 -6 -6 -6 -7 -8 -8 -8 -8 -8 -8 -8 -7 -7 -7 -8 -8 -8 -7 -7 -7 -6 -7 -7 -7 -7 -7 -7 -7 -7 -7 -7 -7 -7
-7 -5 -5 -5 -7 -7 -7 -5 -5 -6 -7 -6 -6 -6 -6 -6 -7 -8 -8 -8 -8 -8 -8 -7 -8 -8 -8 -8 -7 -7 -6 -6 -6 -6 -6 -6 -6 -6 -7 -7 -7 -7 -7 -7
-5 -5 -5 -5 -7 -5 -5 -6 -7 -7 -6 -6 -6 -6 -6 -7 -8 -7 -8 -8 -8 -7 -8 -8 -8 -8 -8 -8 -8 -8 -8 -8 -7 -7 -7 -8 -8 -8 -8 -8 -8 -7 -7 -8
-5 -5 -5 -5 -5 -5 -5 -7 -6 -6 -5 -5 -6 -7 -7 -7 -6 -7 -7 -8 -8 -8 -8 -8 -8 -8 -8 -8 -8 -8 -7 -7 -7 -7 -8 -8 -8 -8 -8 -8 -8 -9 -9 -8
-7 -7 -7 -5 -5 -7 -7 -7 -7 -6 -6 -6 -6 -7 -7 -6 -6 -6 -6 -7 -8 -9 -9 -8 -9 -8 -8 -8 -8 -7 -7 -7 -7 -7 -7 -7 -7 -7 -7 -8 -8 -8 -8 -8
-7 -7 -7 -7 -6 -7 -7 -7 -7 -7 -6 -6 -6 -7 -7 -7 -6 -6 -6 -6 -8 -9 -9 -9 -9 -9 -9 -9 -9 -8 -7 -7 -7 -7 -7 -7 -7 -7 -7 -8 -8 -8 -8 -8
-6 -7 -7 -7 -5 -6 -6 -6 -7 -6 -6 -6 -6 -6 -7 -7 -6 -6 -6 -6 -7 -7 -8 -9 -9 -10 -8 -9 -9 -9 -8 -8 -8 -8 -8 -7 -7 -7 -8 -8 -8 -8 -8 -8
-6 -7 -7 -7 -6 -5 -8 -8 -8 -7 -7 -7 -7 -7 -7 -7 -7 -6 -7 -6 -7 -7 -8 -10 -9 -10 -8 -10 -10 -9 -8 -8 -8 -7 -8 -8 -8 -8 -8 -8 -8 -8 -8 -8
-6 -6 -7 -8 -7 -6 -7 -8 -8 -8 -7 -7 -7 -7 -8 -8 -8 -7 -7 -7 -7 -7 -8 -10 -8 -9 -8 -9 -9 -9 -9 -8 -8 -8 -8 -8 -8 -8 -9 -9 -9 -9 -9 -9
-6 -7 -6 -7 -7 -7 -6 -6 -8 -8 -7 -8 -7 -8 -8 -8 -8 -7 -7 -7 -7 -7 -8 -8 -8 -9 -9 -9 -9 -10 -10 -8 -9 -9 -9 -9 -9 -9 -9 -9 -9 -9 -9 -10
-6 -6 -6 -7 -7 -8 -8 -8 -8 -8 -8 -8 -7 -8 -9 -8 -8 -8 -8 -8 -8 -8 -8 -8 -8 -8 -9 -9 -9 -9 -9 -9 -9 -9 -9 -9 -10 -10 -10 -10 -10 -10 -10 -10
-6 -6 -6 -8 -8 -8 -8 -8 -8 -9 -9 -8 -8 -8 -9 -7 -8 -8 -8 -8 -8 -8 -8 -8 -8 -8 -8 -8 -9 -10 -10 -10 -11 -10 -10 -10 -10 -10 -10 -10 -10 -10 -10 -10
-7 -7 -7 -8 -9 -8 -9 -8 -8 -8 -9 -9 -9 -9 -9 -8 -8 -8 -8 -7 -7 -8 -8 -8 -8 -8 -8 -8 -9 -10 -10 -10 -10 -10 -10 -10 -10 -10 -10 -10 -10 -11 -11 -11
-8 -8 -8 -9 -9 -9 -9 -9 -9 -9 -9 -9 -10 -9 -9 -9 -8 -8 -8 -8 -7 -7 -8 -8 -8 -8 -8 -8 -9 -9 -9 -10 -10 -10 -10 -10 -10 -11 -11 -11 -11 -11 -11 -11
-9 -8 -8 -10 -9 -9 -9 -9 -9 -9 -9 -9 -9 -9 -9 -9 -9 -8 -8 -8 -8 -8 -8 -8 -8 -8 -8 -9 -9 -9 -9 -10 -10 -10 -10 -11 -11 -11 -11 -11 -11 -11 -12 -12
-9 -9 -9 -9 -9 -9 -9 -9 -9 -9 -10 -9 -9 -9 -9 -9 -9 -7 -8 -8 -8 -8 -8 -8 -8 -9 -9 -9 -10 -10 -10 -10 -10 -11 -11 -11 -11 -12 -11 -11 -12 -12 -12 -12
-9 -10 -9 -9 -9 -9 -9 -9 -10 -10 -10 -10 -9 -9 -9 -9 -9 -9 -8 -8 -8 -8 -9 -9 -9 -9 -9 -10 -10 -10 -11 -11 -11 -11 -11 -11 -11 -11 -12 -12 -13 -12 -12 -12
-10 -10 -10 -10 -9 -9 -9 -9 -10 -10 -10 -9 -10 -10 -10 -9 -9 -9 -9 -9 -9 -9 -9 -9 -9 -10 -10 -10 -11 -11 -11 -11 -11 -11 -11 -11 -12 -12 -12 -13 -12 -12 -13 -12
-11 -10 -10 -10 -9 -10 -9 -10 -10 -10 -10 -10 -10 -10 -10 -10 -9 -10 -9 -9 -9 -9 -9 -10 -10 -10 -10 -10 -11 -11 -11 -11 -12 -12 -12 -12 -13 -13 -13 -13 -13 -13 -13 -12
-11 -10 -11 -10 -10 -10 -10 -10 -10 -10 -10 -10 -10 -10 -10 -10 -10 -10 -10 -10 -10 -10 -10 -10 -10 -11 -11 -11 -11 -11 -12 -12 -12 -12 -13 -13 -13 -13 -13 -13 -13 -13 -13 -12
-11 -11 -11 -11 -10 -10 -10 -10 -10 -10 -10 -10 -10 -10 -10 -10 -10 -10 -10 -10 -10 -10 -11 -11 -11 -11 -11 -11 -12 -12 -12 -12 -12 -13 -13 -13 -13 -13 -13 -13 -13 -13 -13 -12
-11 -12 -11 -11 -11 -11 -10 -11 -10 -10 -10 -10 -10 -10 -10 -10 -11 -10 -11 -11 -11 -11 -11 -12 -12 -12 -12 -12 -12 -12 -12 -13 -13 -13 -13 -14 -14 -14 -14 -13 -13 -13 -13 -13

GFSCGP_500_temp_150.txt.gz
Temp
-4 -4 -4 -6 -7 -6 -5 -5 -5 -6 -7 -7 -7 -7 -7 -6 -6 -6 -6 -6 -6 -6 -6 -5 -6 -6 -6 -6 -6 -7 -6 -7 -7 -7 -7 -7 -8 -8 -8 -8 -7 -7 -8 -8
-4 -4 -5 -7 -6 -6 -6 -5 -5 -6 -6 -6 -6 -7 -7 -7 -8 -6 -6 -6 -7 -7 -6 -6 -6 -6 -6 -6 -6 -6 -6 -6 -6 -6 -6 -6 -7 -7 -7 -7 -7 -6 -6 -6
-4 -5 -4 -7 -6 -6 -6 -6 -5 -6 -6 -6 -6 -6 -7 -7 -7 -8 -6 -6 -6 -6 -7 -7 -6 -6 -6 -6 -6 -6 -6 -6 -6 -6 -6 -7 -7 -7 -7 -8 -7 -7 -3 -7
-4 -5 -6 -7 -5 -5 -6 -6 -6 -6 -6 -6 -6 -6 -7 -7 -6 -7 -6 -5 -5 -6 -6 -7 -7 -7 -7 -7 -7 -6 -6 -6 -6 -6 -6 -6 -7 -7 -7 -6 -6 -7 -7 -7
-4 -4 -5 -4 -4 -6 -6 -6 -6 -6 -6 -6 -6 -6 -6 -6 -6 -6 -7 -6 -6 -5 -7 -7 -7 -7 -7 -7 -7 -7 -7 -6 -6 -6 -6 -6 -6 -6 -6 -6 -6 -6 -7 -7
-5 -5 -5 -4 -4 -7 -7 -6 -6 -6 -6 -6 -6 -5 -5 -6 -7 -8 -7 -7 -6 -6 -6 -7 -7 -7 -7 -7 -7 -6 -6 -6 -5 -5 -5 -5 -6 -6 -6 -6 -7 -7 -7 -6
-5 -6 -5 -4 -5 -7 -6 -6 -6 -6 -6 -5 -5 -5 -6 -6 -7 -8 -7 -8 -8 -7 -6 -5 -6 -6 -6 -7 -7 -6 -6 -6 -6 -6 -6 -6 -6 -6 -6 -7 -7 -7 -7 -7
-5 -5 -4 -4 -4 -7 -4 -6 -6 -5 -5 -4 -5 -5 -6 -6 -7 -7 -7 -7 -8 -8 -7 -6 -5 -5 -5 -5 -6 -6 -6 -6 -6 -6 -6 -6 -6 -6 -7 -7 -8 -8 -8 -8
-7 -5 -7 -5 -5 -6 -5 -4 -5 -6 -5 -5 -5 -6 -6 -6 -6 -6 -6 -6 -7 -7 -7 -6 -7 -6 -7 -6 -6 -6 -5 -5 -6 -5 -5 -5 -6 -6 -7 -7 -8 -8 -8 -8
-6 -7 -7 -7 -6 -5 -7 -6 -6 -6 -5 -5 -5 -5 -6 -5 -6 -5 -5 -6 -6 -8 -7 -7 -8 -7 -5 -8 -7 -6 -5 -6 -6 -5 -6 -6 -6 -6 -6 -7 -7 -7 -7 -8
-6 -7 -6 -6 -7 -6 -7 -7 -7 -6 -5 -5 -5 -6 -6 -6 -5 -6 -6 -6 -6 -6 -8 -8 -8 -8 -8 -8 -8 -7 -5 -5 -5 -6 -6 -6 -6 -7 -7 -7 -7 -7 -8 -8
-5 -7 -6 -6 -7 -6 -7 -7 -7 -6 -6 -6 -6 -7 -7 -6 -6 -6 -6 -5 -5 -6 -6 -8 -8 -9 -7 -6 -7 -6 -6 -6 -5 -7 -6 -7 -6 -6 -7 -7 -7 -7 -8 -9
-7 -6 -7 -7 -7 -7 -6 -7 -7 -7 -7 -6 -6 -6 -6 -6 -6 -6 -6 -6 -5 -6 -6 -7 -6 -7 -8 -7 -5 -7 -5 -4 -5 -7 -6 -8 -7 -8 -7 -8 -9 -9 -9 -9
-8 -8 -6 -7 -6 -7 -7 -7 -7 -7 -7 -7 -6 -7 -7 -7 -6 -6 -6 -7 -7 -5 -6 -7 -8 -7 -5 -5 -6 -6 -7 -6 -5 -5 -7 -8 -9 -8 -9 -9 -9 -9 -9 -9
-8 -8 -8 -7 -7 -7 -7 -7 -7 -7 -7 -7 -7 -7 -8 -7 -6 -7 -7 -7 -7 -6 -6 -7 -6 -5 -7 -8 -7 -8 -7 -7 -6 -6 -7 -7 -7 -11 -10 -9 -9 -9 -10 -10
-8 -7 -8 -8 -7 -7 -7 -7 -7 -8 -7 -7 -7 -8 -7 -8 -8 -7 -8 -7 -7 -7 -7 -6 -6 -5 -6 -7 -6 -7 -8 -8 -8 -8 -8 -8 -9 -9 -9 -9 -10 -10 -10 -10
-8 -7 -8 -6 -7 -8 -7 -7 -7 -7 -7 -8 -8 -8 -8 -8 -8 -8 -8 -8 -7 -7 -7 -7 -6 -6 -6 -7 -7 -8 -8 -8 -8 -9 -9 -9 -9 -9 -10 -10 -10 -10 -11 -10
-8 -8 -7 -8 -8 -8 -6 -7 -7 -8 -8 -8 -9 -8 -8 -8 -8 -8 -8 -8 -7 -7 -7 -7 -7 -7 -7 -7 -8 -8 -7 -8 -9 -9 -10 -10 -10 -10 -10 -11 -11 -11 -11 -11
-9 -8 -8 -9 -9 -8 -8 -8 -8 -8 -8 -8 -9 -9 -8 -8 -8 -8 -8 -8 -8 -7 -7 -7 -7 -7 -8 -8 -8 -8 -9 -9 -10 -10 -10 -10 -10 -11 -11 -11 -11 -11 -11 -11
-10 -9 -9 -8 -9 -9 -8 -8 -8 -8 -8 -9 -9 -9 -8 -8 -9 -8 -8 -8 -7 -7 -7 -7 -7 -8 -8 -8 -9 -9 -9 -10 -10 -10 -11 -11 -11 -11 -11 -11 -11 -11 -11 -12
-9 -9 -9 -8 -9 -8 -9 -8 -9 -9 -8 -9 -9 -9 -8 -8 -9 -8 -8 -8 -8 -8 -8 -8 -8 -8 -8 -9 -9 -9 -10 -10 -10 -11 -11 -11 -11 -11 -11 -11 -11 -12 -12 -13
-9 -9 -9 -10 -10 -9 -9 -8 -8 -9 -9 -9 -9 -8 -9 -9 -9 -9 -8 -8 -8 -8 -8 -8 -9 -9 -9 -9 -10 -10 -10 -10 -11 -11 -11 -11 -11 -12 -12 -12 -13 -12 -13 -13
-10 -9 -9 -10 -9 -10 -9 -8 -8 -8 -9 -10 -10 -9 -9 -9 -9 -9 -9 -9 -9 -9 -9 -9 -9 -9 -9 -9 -10 -10 -10 -11 -11 -11 -11 -11 -12 -12 -13 -13 -13 -13 -13 -13
-10 -10 -10 -10 -10 -9 -10 -9 -8 -9 -9 -10 -10 -10 -10 -9 -9 -9 -10 -10 -10 -10 -10 -10 -10 -10 -10 -10 -10 -10 -11 -11 -11 -12 -12 -12 -12 -13 -13 -13 -13 -13 -13 -13
-10 -9 -10 -10 -9 -9 -9 -8 -9 -10 -10 -10 -10 -10 -9 -9 -10 -10 -10 -10 -10 -10 -10 -10 -10 -11 -11 -11 -11 -12 -12 -12 -12 -12 -12 -13 -13 -13 -13 -13 -14 -14 -14 -13
-10 -11 -10 -10 -9 -11 -9 -9 -10 -9 -9 -10 -10 -10 -10 -10 -10 -10 -10 -10 -10 -10 -10 -10 -11 -11 -11 -12 -12 -12 -12 -12 -12 -13 -13 -13 -13 -13 -13 -14 -14 -14 -14 -13

GFSCGP_500_temp_153.txt.gz
Temp
-4 -4 -5 -5 -7 -7 -6 -6 -6 -6 -6 -7 -7 -7 -6 -6 -6 -6 -5 -6 -6 -5 -5 -5 -5 -6 -5 -6 -6 -6 -6 -6 -6 -6 -6 -6 -6 -7 -7 -7 -8 -9 -9 -8
-4 -5 -5 -3 -6 -6 -6 -6 -6 -6 -6 -7 -7 -7 -6 -5 -5 -5 -6 -5 -6 -5 -5 -5 -5 -5 -6 -5 -6 -6 -6 -6 -6 -6 -6 -6 -6 -7 -7 -7 -7 -8 -7 -6
-4 -4 -5 -3 -6 -6 -6 -6 -6 -6 -6 -6 -7 -7 -7 -6 -5 -5 -5 -6 -6 -6 -6 -5 -5 -5 -5 -6 -6 -6 -6 -6 -6 -5 -5 -5 -6 -6 -6 -7 -7 -7 -6 -6
-4 -4 -3 -6 -6 -6 -5 -6 -6 -6 -6 -6 -6 -6 -6 -6 -6 -5 -5 -5 -6 -6 -6 -6 -6 -5 -5 -5 -6 -6 -6 -6 -6 -6 -5 -5 -6 -6 -6 -6 -6 -6 -7 -7
-4 -4 -3 -6 -5 -5 -5 -6 -6 -6 -6 -6 -6 -6 -6 -6 -6 -6 -6 -4 -4 -6 -7 -6 -6 -6 -6 -5 -5 -5 -6 -6 -6 -6 -5 -5 -5 -6 -6 -6 -6 -6 -7 -7
-4 -4 -4 -6 -5 -6 -7 -7 -6 -6 -6 -5 -6 -6 -6 -6 -6 -6 -6 -5 -5 -4 -4 -6 -7 -6 -6 -6 -5 -5 -5 -5 -6 -5 -6 -5 -6 -6 -6 -6 -6 -6 -7 -8
-4 -4 -4 -4 -4 -5 -7 -7 -5 -5 -5 -5 -5 -6 -6 -6 -6 -6 -6 -5 -6 -6 -5 -5 -6 -6 -5 -5 -6 -5 -5 -5 -5 -5 -6 -6 -6 -6 -6 -7 -7 -6 -6 -7
-4 -4 -3 -4 -4 -4 -5 -5 -5 -6 -6 -6 -5 -5 -6 -6 -6 -6 -6 -6 -6 -6 -5 -5 -5 -6 -6 -5 -5 -5 -5 -5 -5 -6 -6 -8 -8 -7 -7 -8 -8 -8 -8 -8
-4 -4 -5 -5 -4 -5 -6 -5 -5 -6 -6 -5 -6 -5 -5 -5 -5 -6 -6 -6 -7 -7 -6 -5 -5 -5 -6 -6 -7 -6 -5 -7 -6 -6 -7 -8 -8 -9 -9 -9 -9 -9 -9 -9
-5 -5 -6 -5 -5 -5 -5 -6 -6 -6 -5 -5 -5 -6 -6 -6 -5 -5 -5 -6 -6 -7 -6 -6 -5 -6 -7 -8 -8 -7 -7 -6 -8 -7 -8 -8 -8 -8 -8 -8 -9 -9 -9 -9
-6 -6 -6 -7 -5 -5 -5 -5 -6 -6 -5 -5 -6 -6 -6 -5 -5 -4 -6 -5 -6 -7 -6 -7 -8 -7 -7 -5 -5 -7 -7 -7 -8 -9 -9 -8 -8 -8 -7 -8 -8 -9 -9 -8
-6 -6 -6 -7 -7 -6 -6 -5 -6 -6 -5 -6 -6 -6 -6 -6 -6 -5 -6 -5 -6 -6 -7 -7 -7 -7 -5 -6 -6 -8 -7 -6 -7 -6 -7 -7 -8 -8 -8 -8 -8 -9 -10 -9
-6 -7 -6 -6 -7 -6 -7 -6 -7 -6 -6 -6 -6 -6 -6 -5 -5 -5 -5 -5 -5 -6 -6 -7 -7 -6 -7 -6 -6 -8 -6 -7 -8 -6 -7 -8 -9 -8 -8 -9 -9 -10 -10 -10
-7 -6 -7 -6 -7 -7 -7 -6 -6 -7 -6 -6 -6 -6 -7 -6 -5 -5 -5 -5 -6 -4 -5 -6 -7 -7 -6 -6 -7 -8 -7 -6 -6 -7 -8 -8 -9 -8 -9 -9 -10 -10 -10 -8
-8 -7 -7 -7 -6 -7 -7 -7 -7 -6 -6 -7 -7 -6 -7 -7 -6 -5 -6 -6 -6 -5 -6 -6 -6 -6 -7 -7 -6 -7 -7 -6 -7 -8 -8 -8 -9 -9 -10 -10 -9 -8 -8 -8
-8 -8 -8 -8 -7 -7 -7 -7 -8 -7 -7 -7 -7 -7 -7 -7 -7 -6 -6 -7 -6 -6 -6 -6 -7 -7 -7 -7 -7 -6 -6 -7 -8 -8 -8 -8 -8 -9 -9 -8 -8 -8 -8 -8
-8 -8 -8 -8 -7 -7 -7 -7 -7 -8 -8 -7 -7 -7 -7 -8 -8 -7 -7 -7 -6 -6 -6 -6 -6 -6 -7 -7 -6 -7 -7 -7 -7 -7 -8 -8 -8 -8 -8 -8 -8 -8 -8 -9
-8 -8 -8 -7 -8 -7 -5 -7 -7 -7 -8 -8 -7 -7 -7 -7 -8 -7 -6 -6 -7 -7 -7 -7 -7 -6 -6 -6 -6 -7 -7 -7 -8 -8 -8 -8 -8 -8 -8 -8 -8 -9 -9 -10
-9 -8 -8 -8 -8 -7 -7 -6 -7 -7 -8 -9 -8 -8 -7 -8 -8 -7 -7 -7 -7 -8 -7 -7 -7 -7 -7 -7 -7 -7 -7 -7 -7 -7 -8 -8 -8 -8 -8 -9 -9 -10 -11 -11
-9 -9 -9 -9 -9 -7 -5 -7 -7 -7 -8 -9 -8 -6 -6 -6 -7 -7 -7 -8 -8 -8 -8 -8 -7 -7 -7 -8 -7 -7 -8 -8 -8 -8 -8 -8 -9 -9 -9 -11 -11 -11 -11 -11
-9 -10 -9 -9 -8 -7 -7 -7 -8 -8 -8 -8 -8 -8 -8 -8 -8 -8 -8 -9 -9 -8 -8 -7 -7 -7 -8 -8 -8 -8 -8 -8 -8 -8 -9 -9 -10 -10 -11 -11 -11 -11 -12 -12
-9 -8 -9 -9 -9 -8 -8 -8 -8 -8 -8 -8 -8 -8 -8 -8 -8 -8 -9 -9 -9 -8 -8 -8 -8 -8 -8 -9 -9 -9 -9 -9 -9 -10 -10 -10 -11 -11 -11 -11 -12 -12 -12 -12
-9 -9 -8 -8 -8 -8 -8 -8 -8 -9 -9 -9 -8 -8 -8 -8 -9 -9 -9 -9 -8 -8 -9 -8 -9 -9 -9 -9 -9 -9 -9 -9 -10 -10 -11 -11 -11 -11 -11 -12 -12 -12 -12 -13
-10 -10 -10 -10 -9 -9 -9 -8 -9 -9 -9 -9 -9 -9 -8 -8 -9 -9 -9 -9 -9 -9 -9 -9 -9 -9 -9 -9 -9 -10 -10 -10 -10 -11 -11 -11 -12 -12 -12 -12 -12 -13 -13 -13
-10 -10 -10 -10 -10 -9 -10 -10 -10 -10 -9 -9 -9 -9 -9 -9 -9 -9 -10 -10 -10 -10 -10 -10 -10 -10 -10 -9 -10 -10 -10 -11 -11 -11 -12 -12 -13 -13 -13 -13 -13 -13 -14 -14
-11 -11 -11 -10 -9 -8 -10 -10 -10 -10 -10 -10 -9 -9 -9 -10 -9 -10 -10 -10 -10 -10 -10 -10 -10 -10 -10 -10 -11 -11 -11 -11 -12 -12 -13 -13 -13 -13 -13 -13 -14 -14 -14 -14

GFSCGP_500_temp_156.txt.gz
Temp
-5 -6 -6 -7 -7 -7 -7 -7 -7 -7 -6 -6 -5 -5 -6 -6 -6 -6 -7 -6 -5 -5 -5 -5 -5 -5 -5 -6 -6 -6 -6 -6 -6 -7 -7 -8 -8 -8 -8 -8 -8 -8 -8 -7
-5 -5 -5 -6 -6 -6 -6 -7 -7 -7 -6 -6 -5 -4 -5 -6 -6 -6 -6 -6 -5 -5 -4 -5 -5 -5 -6 -6 -6 -6 -6 -6 -6 -7 -7 -7 -8 -7 -8 -8 -8 -8 -7 -7
-5 -5 -5 -5 -6 -6 -6 -6 -6 -6 -6 -6 -6 -5 -5 -5 -5 -6 -6 -7 -6 -5 -5 -5 -5 -5 -5 -6 -6 -6 -6 -6 -7 -7 -7 -7 -7 -7 -8 -8 -8 -8 -8 -8
-5 -4 -5 -4 -5 -6 -6 -6 -6 -6 -6 -6 -6 -5 -5 -5 -5 -6 -6 -6 -6 -6 -6 -6 -7 -6 -6 -6 -6 -6 -6 -6 -7 -7 -7 -7 -7 -8 -7 -8 -8 -8 -7 -8
-4 -4 -4 -4 -4 -6 -6 -6 -6 -6 -6 -6 -6 -5 -6 -5 -5 -6 -6 -6 -5 -6 -6 -6 -7 -6 -7 -7 -6 -6 -6 -7 -7 -7 -7 -7 -8 -8 -8 -7 -7 -7 -8 -7
-5 -5 -5 -3 -4 -6 -6 -6 -6 -7 -6 -5 -5 -6 -5 -5 -6 -5 -6 -6 -5 -5 -5 -6 -7 -7 -8 -8 -8 -8 -7 -7 -7 -8 -8 -7 -7 -8 -8 -8 -8 -7 -7 -7
-4 -3 -4 -3 -3 -6 -6 -6 -5 -5 -6 -6 -6 -6 -5 -6 -6 -6 -6 -5 -5 -5 -5 -5 -5 -6 -7 -8 -8 -8 -8 -7 -8 -8 -8 -9 -9 -9 -7 -8 -8 -9 -8 -8
-4 -4 -3 -3 -3 -5 -6 -5 -5 -6 -6 -6 -6 -5 -4 -5 -6 -6 -6 -5 -5 -5 -5 -5 -6 -5 -6 -7 -7 -7 -7 -7 -8 -7 -8 -8 -9 -9 -8 -9 -9 -8 -9 -9
-4 -4 -5 -4 -4 -5 -5 -4 -6 -6 -6 -5 -6 -5 -5 -5 -6 -6 -6 -6 -6 -6 -6 -6 -5 -6 -6 -6 -7 -7 -7 -7 -8 -8 -8 -8 -9 -8 -8 -7 -9 -9 -10 -9
-5 -5 -5 -5 -5 -5 -5 -5 -6 -6 -6 -6 -6 -6 -6 -6 -6 -6 -6 -6 -6 -6 -6 -6 -6 -6 -6 -6 -8 -7 -6 -8 -9 -8 -8 -8 -8 -9 -8 -9 -8 -9 -9 -8
-5 -5 -5 -5 -5 -5 -5 -5 -6 -6 -6 -6 -6 -6 -6 -6 -6 -6 -6 -7 -6 -6 -6 -6 -6 -6 -7 -8 -7 -8 -8 -7 -9 -8 -8 -9 -8 -8 -8 -8 -8 -9 -9 -8
-5 -5 -6 -5 -6 -6 -6 -6 -5 -5 -5 -6 -6 -6 -7 -6 -6 -6 -6 -6 -7 -6 -6 -6 -6 -7 -7 -8 -8 -8 -8 -7 -8 -8 -7 -8 -8 -8 -8 -8 -9 -9 -8 -9
-6 -5 -5 -6 -6 -5 -5 -7 -7 -6 -5 -6 -6 -7 -6 -7 -6 -6 -6 -6 -6 -6 -6 -6 -7 -7 -8 -8 -8 -8 -7 -7 -7 -7 -8 -9 -8 -8 -8 -8 -8 -9 -9 -9
-7 -6 -5 -5 -6 -6 -6 -5 -7 -7 -6 -5 -6 -6 -7 -7 -7 -6 -6 -6 -6 -6 -6 -7 -7 -7 -7 -7 -8 -7 -7 -7 -7 -8 -8 -8 -8 -7 -8 -8 -9 -9 -9 -9
-8 -7 -6 -6 -6 -7 -6 -7 -7 -7 -7 -6 -6 -6 -7 -7 -7 -6 -6 -6 -5 -6 -6 -7 -7 -7 -7 -7 -7 -7 -7 -7 -8 -8 -8 -8 -8 -8 -8 -8 -8 -9 -9 -9
-8 -8 -7 -7 -7 -7 -7 -7 -7 -7 -7 -7 -6 -6 -6 -7 -7 -7 -6 -5 -6 -6 -6 -6 -6 -7 -7 -7 -7 -7 -8 -8 -8 -7 -7 -7 -7 -7 -8 -9 -9 -10 -10 -11
-8 -8 -8 -7 -7 -7 -7 -7 -7 -7 -7 -7 -7 -6 -6 -7 -7 -7 -7 -6 -6 -6 -6 -6 -7 -7 -7 -7 -7 -7 -7 -7 -7 -7 -7 -7 -7 -8 -9 -10 -10 -10 -11 -11
-8 -8 -8 -7 -7 -7 -6 -7 -8 -8 -8 -8 -7 -8 -7 -7 -7 -7 -8 -7 -8 -8 -6 -7 -7 -7 -7 -7 -6 -7 -7 -7 -7 -7 -8 -8 -9 -9 -10 -10 -10 -10 -10 -10
-8 -8 -8 -8 -8 -8 -7 -7 -7 -7 -8 -8 -7 -7 -7 -8 -7 -7 -8 -7 -8 -8 -7 -8 -7 -7 -7 -7 -7 -7 -7 -8 -8 -8 -9 -9 -9 -10 -10 -10 -9 -9 -9 -10
-8 -8 -8 -8 -8 -8 -5 -6 -7 -7 -8 -8 -8 -8 -7 -8 -8 -8 -7 -7 -8 -8 -8 -8 -8 -8 -8 -8 -8 -8 -8 -8 -9 -9 -9 -8 -8 -8 -8 -9 -9 -10 -10 -11
-8 -8 -8 -8 -9 -8 -6 -6 -7 -7 -7 -7 -7 -8 -8 -8 -8 -8 -9 -8 -8 -8 -8 -8 -8 -8 -8 -9 -8 -8 -9 -9 -9 -9 -9 -9 -9 -9 -10 -10 -11 -11 -11 -11
-8 -8 -8 -8 -8 -7 -6 -6 -7 -7 -7 -8 -8 -7 -8 -8 -8 -8 -8 -8 -8 -9 -9 -9 -9 -9 -9 -9 -9 -9 -9 -9 -9 -9 -9 -10 -10 -10 -11 -11 -11 -11 -11 -12
-9 -9 -8 -8 -8 -8 -7 -6 -7 -7 -7 -8 -8 -8 -8 -8 -8 -8 -8 -9 -10 -10 -9 -9 -10 -9 -9 -9 -9 -9 -9 -9 -10 -10 -10 -10 -10 -11 -11 -11 -11 -12 -12 -12
-9 -10 -9 -9 -9 -8 -8 -7 -7 -7 -7 -7 -7 -7 -8 -8 -8 -9 -9 -9 -9 -9 -9 -10 -10 -10 -10 -10 -10 -10 -10 -10 -10 -10 -10 -10 -10 -11 -11 -12 -12 -12 -12 -12
-10 -10 -10 -9 -8 -8 -8 -8 -8 -8 -9 -8 -9 -8 -8 -9 -9 -9 -9 -9 -9 -10 -10 -10 -10 -10 -10 -10 -10 -10 -10 -10 -10 -10 -10 -11 -11 -12 -12 -13 -13 -13 -13 -13
-10 -10 -9 -9 -8 -8 -9 -8 -8 -8 -8 -9 -10 -9 -9 -10 -10 -10 -10 -10 -10 -11 -11 -10 -10 -10 -10 -10 -10 -10 -10 -10 -10 -11 -11 -12 -12 -13 -13 -13 -13 -13 -13 -14